Hourly Data Report for October 22, 2015

All times are specified in Local Standard Time (LST). Add 1 hour to adjust for Daylight Saving Time where and when it is observed.

FREDERICTON
NEW BRUNSWICK

45°52'08.000" N
66°32'14.000" W
20.70 m
8101505
71700
YFC

Download Data

Hourly Data (October 2015)
Hourly Data Report for October 22, 2015
Temp Definition
°C
Dew Point Temp Definition
°C
Rel Hum Definition
%
Wind Dir Definition
10's deg

Wind Spd Definition
km/h
Visibility Definition
km
Stn Press Definition
kPa
Hmdx Definition


Wind Chill Definition


Weather Definition


TIME
00:00 Legend Double Dagger -2.5 -3.3 94   0 16.1 102.67     LegendNANA
01:00 Legend Double Dagger -3.1 -3.7 96 33 8 16.1 102.64   -6 LegendNANA
02:00 Legend Double Dagger -3.1 -3.9 94 18 8 16.1 102.68   -6 LegendNANA
03:00 Legend Double Dagger -2.7 -3.5 94 20 8 16.1 102.57   -6 LegendNANA
04:00 Legend Double Dagger -2.2 -3.2 93 34 5 16.1 102.53   -4 LegendNANA
05:00 Legend Double Dagger -1.0 -1.8 94 LegendMM 4 16.1 102.51   -2 LegendNANA
06:00 Legend Double Dagger 0.1 -1.7 88 LegendMM 4 16.1 102.50     Rain
07:00 Legend Double Dagger 0.2 -1.4 89 2 8 16.1 102.48     Rain
08:00 Legend Double Dagger 1.2 -0.3 90 7 5 16.1 102.41     Rain
09:00 Legend Double Dagger 2.1 0.6 90 9 4 16.1 102.35     LegendNANA
10:00 Legend Double Dagger 2.8 1.4 90 5 9 16.1 102.21     LegendNANA
11:00 Legend Double Dagger 4.0 2.0 87 8 8 16.1 102.05     Rain
12:00 Legend Double Dagger 6.7 4.0 83 14 13 16.1 101.88     Rain
13:00 Legend Double Dagger 7.5 4.1 79 12 11 16.1 101.72     LegendNANA
14:00 Legend Double Dagger 8.4 5.7 83 15 13 16.1 101.50     Rain
15:00 Legend Double Dagger 9.9 6.6 80 17 13 16.1 101.36     LegendNANA
16:00 Legend Double Dagger 11.0 8.4 84 17 17 16.1 101.26     LegendNANA
17:00 Legend Double Dagger 12.3 10.0 86 18 18 16.1 101.12     LegendNANA
18:00 Legend Double Dagger 12.7 10.6 87 18 17 16.1 101.03     LegendNANA
19:00 Legend Double Dagger 12.7 10.8 88 19 18 16.1 100.93     LegendNANA
20:00 Legend Double Dagger 12.7 11.1 90 19 21 16.1 100.84     LegendNANA
21:00 Legend Double Dagger 13.0 11.2 89 22 17 16.1 100.79     LegendNANA
22:00 Legend Double Dagger 13.0 11.3 89 21 15 14.5 100.79     LegendNANA
23:00 Legend Double Dagger 11.9 10.8 93 22 8 16.1 100.77     LegendNANA

Notes on Data Quality.

Legend

  • E = Estimated
  • M = Missing
  • NA = Not Available
  • ‡ = Partner data that is not subject to review by the National Climate Archives
Date modified: